Weather History for KMLP - August, 2013

Change the Weather History Date:

Saturday, August 3, 2013

  Actual Average (K3TH) Record (K3TH)
Temperature  
Mean Temperature 48 °F -  
Max Temperature 55 °F 84 °F 100 °F (2000)
Min Temperature 42 °F 57 °F 53 °F (1996)
Degree Days  
Heating Degree Days 16    
Moisture  
Dew Point 46 °F    
Average Humidity 91    
Maximum Humidity 100    
Minimum Humidity 74    
Precipitation  
Precipitation 0.00 in - - ()
Sea Level Pressure  
Sea Level Pressure 30.12 in    
Wind  
Wind Speed 4 mph (South)    
Max Wind Speed 7 mph    
Max Gust Speed -    
Visibility 6 miles    
Events Fog , Rain    
Averages and records for this station are not official NWS values.
T = Trace of Precipitation, MM = Missing Value Source: NWS Daily Summary

Daily Weather History Graph

Daily Weather History Graph

Search for Another Location

Airport or City:

Trip Planner

Search our weather history database for the weather conditions in past years. The results will help you decide how hot, cold, wet, or windy it might be!

Date:

Astronomy

Aug. 03, 2013 Rise Set
Actual Time 5:23 AM PDT 8:13 PM PDT
Civil Twilight 4:48 AM PDT 8:48 PM PDT
Nautical Twilight 4:02 AM PDT 9:33 PM PDT
Astronomical Twilight 3:08 AM PDT 10:27 PM PDT
Moon 2:33 AM PDT (8/3) 6:00 PM PDT (8/3)
Length of Visible Light 16h 00m
Length of Day
14h 49m
Waning Crescent, 9% of the Moon is Illuminated
Aug 3
Waning Crescent
Aug 6
New
Aug 14
First Quarter
Aug 20
Full
Aug 28
Last Quarter

Hourly Weather History & Observations

Time (PDT) Temp. Windchill Dew Point Humidity Pressure Visibility Wind Dir Wind Speed Gust Speed Precip Events Conditions
12:02 AM 46.4 °F 43.5 °F 46.4 °F 100% 30.18 in 0.2 mi South 5.8 mph - N/A Fog Fog
12:53 AM 45.0 °F 42.6 °F 45.0 °F 100% 30.00 in 0.5 mi South 4.6 mph - N/A Fog Fog
12:58 AM 44.6 °F 41.4 °F 44.6 °F 100% 30.17 in 2.0 mi South 5.8 mph - N/A   Mostly Cloudy
1:01 AM 44.6 °F 41.4 °F 44.6 °F 100% 30.17 in 6.0 mi South 5.8 mph - N/A   Scattered Clouds
1:53 AM 45.0 °F 41.8 °F 45.0 °F 100% 30.00 in 0.8 mi SSE 5.8 mph - N/A   Mist
2:02 AM 44.6 °F 40.7 °F 44.6 °F 100% 30.16 in 0.2 mi SSE 6.9 mph - N/A Fog Fog
2:53 AM 45.0 °F 41.8 °F 44.1 °F 97% 29.99 in 0.2 mi SSE 5.8 mph - N/A Fog Fog
3:53 AM 43.0 °F 39.5 °F 43.0 °F 100% 30.01 in 0.2 mi South 5.8 mph - N/A Fog Fog
4:30 AM 42.8 °F 39.3 °F 42.8 °F 100% 30.18 in 0.5 mi South 5.8 mph - N/A Fog Fog
4:37 AM 42.8 °F 38.6 °F 42.8 °F 100% 30.18 in 0.2 mi South 6.9 mph - N/A Fog Fog
4:53 AM 43.0 °F 39.5 °F 43.0 °F 100% 30.01 in 0.5 mi South 5.8 mph - N/A Fog Fog
5:21 AM 42.8 °F 38.6 °F 42.8 °F 100% 30.18 in 0.2 mi South 6.9 mph - N/A Fog Fog
5:27 AM 44.6 °F 40.7 °F 44.6 °F 100% 30.18 in 1.0 mi South 6.9 mph - N/A   Overcast
5:38 AM 44.6 °F 41.4 °F 44.6 °F 100% 30.18 in 0.8 mi South 5.8 mph - N/A   Overcast
5:53 AM 44.1 °F 40.8 °F 44.1 °F 100% 30.01 in 0.5 mi South 5.8 mph - N/A Fog Fog
5:55 AM 44.6 °F 41.4 °F 44.6 °F 100% 30.18 in 0.2 mi South 5.8 mph - N/A Fog Fog
6:07 AM 44.6 °F 42.2 °F 44.6 °F 100% 30.18 in 0.5 mi South 4.6 mph - N/A Fog Fog
6:23 AM 44.6 °F 43.1 °F 44.6 °F 100% 30.19 in 0.2 mi South 3.5 mph - N/A Fog Fog
6:39 AM 44.6 °F - 44.6 °F 100% 30.19 in 1.2 mi Calm Calm - N/A   Scattered Clouds
6:42 AM 44.6 °F 43.1 °F 44.6 °F 100% 30.19 in 2.5 mi Variable 3.5 mph - N/A   Scattered Clouds
6:50 AM 46.4 °F - 44.6 °F 93% 30.20 in 5.0 mi Calm Calm - N/A   Partly Cloudy
6:53 AM 46.0 °F - 46.0 °F 100% 30.02 in 5.0 mi Calm Calm - N/A   Partly Cloudy
7:53 AM 48.0 °F - 46.9 °F 96% 30.02 in 9.0 mi Calm Calm - N/A   Clear
8:53 AM 48.9 °F - 46.0 °F 90% 30.03 in 10.0 mi Calm Calm - N/A   Clear
9:30 AM 50.0 °F - 46.4 °F 87% 30.21 in 10.0 mi Calm Calm - N/A   Mostly Cloudy
9:53 AM 51.1 °F - 46.9 °F 86% 30.03 in 10.0 mi Calm Calm - N/A   Overcast
10:03 AM 51.8 °F - 48.2 °F 88% 30.21 in 10.0 mi Calm Calm - N/A   Overcast
10:14 AM 51.8 °F - 48.2 °F 88% 30.21 in 10.0 mi Calm Calm - N/A   Overcast
10:24 AM 51.8 °F - 48.2 °F 88% 30.21 in 10.0 mi Calm Calm - N/A   Overcast
10:45 AM 53.6 °F - 48.2 °F 82% 30.22 in 10.0 mi Calm Calm - N/A   Overcast
10:53 AM 51.1 °F - 48.0 °F 89% 30.03 in 10.0 mi North 3.5 mph - N/A   Overcast
10:59 AM 51.8 °F - 48.2 °F 88% 30.22 in 10.0 mi Calm Calm - N/A   Overcast
11:20 AM 51.8 °F - 48.2 °F 88% 30.22 in 10.0 mi Calm Calm - N/A   Overcast
11:53 AM 53.1 °F - 48.0 °F 83% 30.03 in 10.0 mi Calm Calm - N/A Rain Light Rain
12:00 PM 53.6 °F - 46.4 °F 77% 30.22 in 10.0 mi Variable 3.5 mph - N/A Rain Light Rain
12:32 PM 53.6 °F - 50.0 °F 88% 30.23 in 10.0 mi Calm Calm - N/A   Overcast
12:46 PM 55.4 °F - 51.8 °F 88% 30.23 in 10.0 mi Calm Calm - N/A   Overcast
12:53 PM 54.0 °F - 50.0 °F 86% 30.03 in 10.0 mi Calm Calm - N/A   Overcast
1:23 PM 53.6 °F - 50.0 °F 88% 30.23 in 10.0 mi Variable 3.5 mph - N/A Rain Light Rain
1:53 PM 53.1 °F - 50.0 °F 89% 30.04 in 10.0 mi Calm Calm - N/A   Overcast
2:17 PM 51.8 °F - 46.4 °F 82% 30.24 in 10.0 mi Calm Calm - N/A Rain Light Rain
2:24 PM 51.8 °F - 46.4 °F 82% 30.24 in 10.0 mi Calm Calm - N/A Rain Light Rain
2:53 PM 53.1 °F - 48.9 °F 86% 30.05 in 10.0 mi Calm Calm - N/A   Overcast
3:53 PM 55.0 °F - 48.0 °F 77% 30.04 in 10.0 mi Calm Calm - N/A   Overcast
4:30 PM 53.6 °F - 50.0 °F 88% 30.23 in 10.0 mi Calm Calm - N/A   Overcast
4:53 PM 54.0 °F - 48.9 °F 83% 30.04 in 10.0 mi Calm Calm - N/A   Overcast
5:53 PM 53.1 °F - 46.0 °F 77% 30.02 in 10.0 mi Variable 3.5 mph - N/A   Overcast
6:53 PM 54.0 °F - 48.0 °F 80% 30.01 in 10.0 mi Calm Calm - N/A   Partly Cloudy
7:53 PM 52.0 °F - 48.0 °F 86% 30.00 in 10.0 mi Calm Calm - N/A   Clear
8:53 PM 51.1 °F - 46.0 °F 83% 30.02 in 10.0 mi Calm Calm - N/A   Clear
9:53 PM 52.0 °F - 46.0 °F 80% 30.01 in 10.0 mi Calm Calm - N/A   Clear
10:53 PM 52.0 °F - 44.1 °F 74% 30.01 in 10.0 mi Calm Calm - N/A   Clear
11:53 PM 50.0 °F - 46.9 °F 89% 29.99 in 10.0 mi Calm Calm - N/A   Clear